[[{"header":{"parameterUnit":"m.s-1","parameterCategory":2,"la1":30.2991,"la2":30.254,"lo1":-89.0895,"lo2":-89.0444,"dy":0.0017,"dx":0.0017,"nx":28,"ny":28,"refTime":"2025-07-07T09:00:00:Z","depth":"0","parameterNumber":2,"parameterNumberName":"U-component_of_CURRENTS"},"data":[0,0,0,0,0,0,0,0,0,0,0,0,0,0,0,0,0,0,0,0,0,0,0,0,0,0,0,0,0,0,0,0,0,0,0,0,0,0,0,0,0,0,0,0,0,0,0,0,0,0,0,0,0,0,0,0,0,0,0.338,0.338,0,0.34,0.3401,0.3401,0.3375,0.3374,0.3373,0.3372,0.3425,0.3427,0.3429,0,0,0,0,0,0,0,0,0,0,0,0,0,0.3392,0.3391,0.338,0.338,0.3381,0.34,0.3401,0.3401,0.3376,0.3374,0.3373,0.3372,0.3424,0.3427,0.3429,0,0,0,0,0,0,0,0,0,0,0,0,0,0.3398,0.3391,0.338,0.3369,0.3368,0.34,0.3401,0.3401,0.3376,0.3374,0.3373,0.3371,0.3423,0.3426,0.343,0.3483,0,0,0.3441,0.3442,0,0,0,0,0,0,0,0,0.3397,0.3397,0.3371,0.337,0.3369,0.3383,0.3424,0.343,0.3376,0.3374,0.3372,0.337,0.3414,0.3418,0.3427,0.3485,0.3488,0.3441,0.3443,0.3445,0.3446,0,0,0,0,0,0,0,0.3397,0.3397,0.3389,0.3371,0.337,0.3388,0.3386,0.3425,0.3404,0.3374,0.3372,0.3373,0.3414,0.3423,0.3428,0.3488,0.3441,0.3444,0.3446,0.3448,0.3674,0.3678,0,0,0,0,0,0,0.339,0.3396,0.3389,0.339,0.3378,0.3389,0.3387,0.3381,0.3403,0.3404,0.3374,0.3372,0.3418,0.3424,0.343,0.3583,0.3445,0.3448,0.345,0.367,0.3675,0.3679,0,0,0,0,0,0,0.339,0.3389,0.3388,0.3393,0.3394,0.3389,0.3383,0.3382,0.3391,0.3402,0.3404,0.3384,0.3417,0.3425,0.349,0.3581,0.345,0.3453,0.3665,0.3671,0.3677,0.3832,0,0,0,0,0,0,0.339,0.3389,0.3389,0.3392,0.3393,0.3424,0.3384,0.3384,0.3393,0.339,0.3412,0.3415,0.3416,0.3485,0.3493,0.3583,0.3456,0.3661,0.3668,0.3675,0.3822,0.3843,0.386,0,0,0,0,0,0.339,0.3395,0.3389,0.3388,0.3391,0.3425,0.3429,0.3421,0.3395,0.342,0.3438,0.3414,0.3537,0.3491,0.35,0.3593,0.3657,0.3666,0.3674,0.3814,0.3839,0.386,0,0,0,0,0,0,0.3397,0.3393,0.3386,0.3387,0.3413,0.3421,0.3434,0.343,0.3461,0.3455,0.3457,0.3464,0.3565,0.3552,0.35,0.368,0.3597,0.3608,0.37,0.3723,0.3742,0.3759,0.3459,0,0,0,0,0,0.34,0.3402,0.3413,0.3418,0.3428,0.3434,0.3445,0.3446,0.3469,0.3479,0.3502,0.3539,0.3611,0.3639,0.3689,0.3776,0.3767,0.3845,0.3864,0.388,0.3902,0.3976,0.4003,0.3708,0.3708,0.3707,0,0,0.34,0.3401,0.34,0.342,0.3431,0.3484,0.3437,0.3463,0.3526,0.3484,0.3575,0.3607,0.365,0.3763,0.3806,0.3759,0.3956,0.3891,0.3904,0.3918,0.3988,0.4016,0.4042,0.3714,0.3712,0.3712,0,0,0.3416,0.3409,0.3423,0.3461,0.3489,0.3512,0.3524,0.3554,0.3582,0.3674,0.3678,0.3765,0.3843,0.3913,0.3955,0.4107,0.4059,0.4115,0.4225,0.4297,0.4322,0.4343,0.4351,0.4372,0.412,0.412,0.412,0,0.3419,0.344,0.3438,0.3485,0.3524,0.3533,0.3588,0.3641,0.3697,0.3741,0.3723,0.3895,0.3934,0.4091,0.4159,0.4157,0.4151,0.4133,0.4322,0.4343,0.4363,0.4365,0.4386,0.4129,0.4128,0.4127,0.4126,0,0.3458,0.3493,0.3512,0.3578,0.3629,0.3676,0.3748,0.381,0.3847,0.39,0.4047,0.4114,0.4206,0.4257,0.4265,0.4437,0.4372,0.434,0.426,0.4402,0.4395,0.4414,0.4141,0.4138,0.4135,0.4133,0,0,0.3413,0.3515,0.3524,0.3577,0.368,0.3723,0.385,0.3959,0.4039,0.4134,0.4249,0.4418,0.4428,0.4477,0.4502,0.4588,0.4736,0.4531,0.4531,0.4531,0.4848,0.4642,0.4642,0.4726,0.4731,0.4735,0.478,0,0.3443,0.3537,0.3591,0.3713,0.3772,0.3852,0.3968,0.4078,0.4174,0.4295,0.4398,0.4523,0.4519,0.4575,0.4669,0.4732,0.4796,0.4723,0.4717,0.4716,0.4512,0.4663,0.4425,0.4433,0.4798,0.4801,0.4803,0,0.3454,0.3528,0.3632,0.3779,0.381,0.3895,0.4062,0.4171,0.435,0.4424,0.456,0.4624,0.4804,0.4757,0.493,0.4875,0.4881,0.4908,0.4909,0.4679,0.4549,0.4356,0.4453,0.4389,0.4832,0.483,0.4828,0,0.3406,0.355,0.363,0.3685,0.3859,0.3926,0.4024,0.42,0.4313,0.4507,0.46,0.4775,0.4858,0.4953,0.5016,0.4985,0.5156,0.5104,0.4914,0.4896,0.4675,0.4629,0.4703,0.5208,0.5208,0.5208,0.5208,0,0.3406,0.3473,0.3611,0.3665,0.3789,0.3905,0.4055,0.4175,0.4363,0.4494,0.4649,0.4761,0.4914,0.5017,0.5063,0.5046,0.5185,0.4965,0.492,0.4716,0.4675,0.4587,0.456,0.521,0.5209,0.5209,0.5209,0,0.3346,0.3425,0.3543,0.3716,0.3767,0.386,0.4067,0.4174,0.4347,0.4521,0.459,0.4782,0.4882,0.4993,0.5121,0.5058,0.4951,0.5041,0.4757,0.4677,0.4375,0.4363,0.4203,0.4098,0.4837,0.4832,0.4829,0,0.3319,0.3368,0.356,0.3629,0.3709,0.3855,0.3949,0.4147,0.4269,0.4513,0.4584,0.4726,0.4766,0.4861,0.4817,0.4818,0.4771,0.4575,0.4479,0.4356,0.4313,0.4186,0.4104,0.425,0.4242,0.4235,0.423,0,0.3305,0.337,0.3481,0.3611,0.3713,0.3828,0.3974,0.4056,0.4266,0.4362,0.4464,0.4504,0.4554,0.4419,0.44,0.4386,0.4347,0.4427,0.4416,0.3961,0.3718,0.3592,0.4195,0.417,0.4176,0.418,0.4184,0.4186,0.3297,0.3368,0.3495,0.3603,0.3694,0.3741,0.3749,0.3879,0.3957,0.4005,0.4187,0.4112,0.4125,0.4024,0.3998,0.3809,0.3854,0.3691,0.3717,0.3624,0.3429,0.3856,0.3699,0.3702,0.3705,0.3707,0.3709,0,0.3282,0.3357,0.3468,0.3558,0.3554,0.3636,0.3707,0.3646,0.3587,0.367,0.3658,0.3586,0.3436,0.3469,0.3331,0.3177,0.3071,0.3115,0.2958,0.294,0.3429,0.3311,0.2921,0.2921,0.2921,0.2921,0.2921,0.2921,0.3283,0.3355,0.34,0.3372,0.3387,0.3289,0.3248,0.3163,0.3162,0.3,0.2915,0.2958,0.3128,0.3069,0.2912,0.2829,0.2711,0.248,0.2594,0.3024,0.3082,0.3138,0.3027,0.2583,0.2583,0.1961,0.1956,0.1953]},{"header":{"parameterUnit":"m.s-1","parameterCategory":2,"la1":30.2991,"la2":30.254,"lo1":-89.0895,"lo2":-89.0444,"dy":0.0017,"dx":0.0017,"nx":28,"ny":28,"refTime":"2025-07-07T09:00:00:Z","depth":"0","parameterNumber":3,"parameterNumberName":"V-component_of_CURRENTS"},"data":[0,0,0,0,0,0,0,0,0,0,0,0,0,0,0,0,0,0,0,0,0,0,0,0,0,0,0,0,0,0,0,0,0,0,0,0,0,0,0,0,0,0,0,0,0,0,0,0,0,0,0,0,0,0,0,0,0,0,0.0225,0.0224,0,0.0188,0.0187,0.0187,0.016,0.016,0.0159,0.0159,0.0117,0.0116,0.0115,0,0,0,0,0,0,0,0,0,0,0,0,0,0.0246,0.0246,0.0225,0.0224,0.0224,0.0188,0.0187,0.0187,0.016,0.016,0.0159,0.0159,0.0117,0.0116,0.0115,0,0,0,0,0,0,0,0,0,0,0,0,0,0.0226,0.0246,0.0225,0.0206,0.0203,0.0188,0.0187,0.0187,0.016,0.016,0.0159,0.0159,0.0118,0.0116,0.0115,0.0116,0,0,0.0111,0.0111,0,0,0,0,0,0,0,0,0.0227,0.0226,0.0209,0.0207,0.0204,0.0177,0.0179,0.0163,0.016,0.0177,0.0159,0.0158,0.0137,0.0134,0.0129,0.0114,0.0112,0.0111,0.011,0.011,0.0109,0,0,0,0,0,0,0,0.0229,0.0227,0.0211,0.0208,0.0206,0.019,0.0187,0.0176,0.016,0.0176,0.0173,0.0168,0.0135,0.013,0.0128,0.0112,0.0111,0.011,0.0109,0.0109,0.013,0.0131,0,0,0,0,0,0,0.0234,0.0228,0.0212,0.021,0.0214,0.019,0.0186,0.0187,0.016,0.0156,0.0169,0.0167,0.0132,0.0129,0.0126,0.0164,0.011,0.0109,0.0108,0.0128,0.013,0.0131,0,0,0,0,0,0,0.0235,0.0233,0.0213,0.0217,0.0213,0.019,0.0191,0.0187,0.0181,0.0155,0.015,0.0168,0.0132,0.0128,0.013,0.016,0.0108,0.0107,0.0127,0.0129,0.0131,0.0214,0,0,0,0,0,0,0.0236,0.0234,0.0237,0.0218,0.0213,0.0213,0.0191,0.0186,0.0179,0.0176,0.0153,0.0148,0.0131,0.0132,0.0129,0.0157,0.0106,0.0125,0.0128,0.013,0.021,0.0219,0.0226,0,0,0,0,0,0.0237,0.0246,0.0237,0.0235,0.0218,0.0214,0.0211,0.0192,0.0179,0.0184,0.0173,0.0149,0.0145,0.0132,0.0128,0.0157,0.0124,0.0127,0.013,0.0206,0.0217,0.0226,0,0,0,0,0,0,0.0255,0.0243,0.0233,0.0238,0.0229,0.0209,0.021,0.0196,0.019,0.0188,0.0162,0.0158,0.0171,0.0152,0.0138,0.0171,0.0132,0.0135,0.0192,0.0202,0.021,0.026,0.0105,0,0,0,0,0,0.0261,0.0266,0.025,0.0254,0.0251,0.0231,0.0226,0.0215,0.0206,0.0202,0.0188,0.0179,0.018,0.0181,0.0173,0.0189,0.0177,0.0206,0.0215,0.0222,0.026,0.0273,0.0287,0.0141,0.0141,0.0141,0,0,0.0268,0.0263,0.0264,0.0259,0.0249,0.0268,0.0228,0.0227,0.0251,0.0199,0.0226,0.0203,0.019,0.0211,0.0216,0.0199,0.0248,0.0226,0.0232,0.0267,0.0278,0.0292,0.0305,0.0143,0.0143,0.0142,0,0,0.0295,0.0282,0.03,0.03,0.0293,0.0289,0.0292,0.0279,0.0281,0.0297,0.0273,0.0282,0.0268,0.0281,0.0282,0.0335,0.0289,0.0315,0.0403,0.0415,0.0427,0.0438,0.0405,0.0413,0.0323,0.0324,0.0324,0,0.0306,0.0328,0.0304,0.0326,0.0341,0.0306,0.0341,0.0341,0.0334,0.0356,0.0318,0.0345,0.0316,0.0377,0.0388,0.0358,0.0335,0.0364,0.0427,0.0438,0.0448,0.0412,0.0419,0.0328,0.0328,0.0327,0.0327,0,0.0351,0.0371,0.0382,0.0408,0.042,0.044,0.0442,0.046,0.0453,0.0458,0.0502,0.0474,0.0501,0.048,0.0446,0.051,0.0458,0.0431,0.0404,0.0468,0.0425,0.0431,0.0334,0.0333,0.0331,0.033,0,0,0.0378,0.0411,0.0416,0.0454,0.0469,0.0493,0.0539,0.0584,0.0642,0.0623,0.0706,0.0688,0.0674,0.0677,0.0638,0.0641,0.0659,0.0568,0.0566,0.0541,0.065,0.0589,0.0589,0.0635,0.0637,0.0639,0.0578,0,0.0427,0.0493,0.0497,0.0578,0.062,0.0623,0.0681,0.0716,0.0738,0.0805,0.0792,0.0843,0.0749,0.0771,0.0761,0.0702,0.0685,0.0676,0.0589,0.0587,0.0531,0.0599,0.0587,0.0531,0.0584,0.0585,0.0585,0,0.0477,0.0521,0.0601,0.069,0.0711,0.0756,0.0862,0.0912,0.0982,0.1003,0.1046,0.1031,0.1058,0.0961,0.0903,0.0895,0.0786,0.0718,0.0713,0.0646,0.0541,0.0483,0.054,0.0445,0.0594,0.0594,0.0593,0,0.0524,0.0603,0.0677,0.0701,0.0786,0.084,0.0896,0.0974,0.1063,0.1145,0.1219,0.1218,0.1244,0.1143,0.0992,0.0949,0.0908,0.083,0.0669,0.066,0.0633,0.0619,0.0604,0.0787,0.0788,0.0788,0.0788,0,0.0583,0.0645,0.0707,0.0749,0.0876,0.0907,0.1053,0.1107,0.1228,0.1367,0.1333,0.1434,0.129,0.1243,0.1072,0.0905,0.0967,0.0714,0.0665,0.0655,0.0645,0.0546,0.0456,0.0785,0.0786,0.0786,0.0787,0,0.0626,0.0655,0.0758,0.0855,0.0899,0.0995,0.1164,0.1288,0.1363,0.1551,0.1595,0.1614,0.1537,0.1368,0.1202,0.1017,0.0779,0.0771,0.0747,0.0697,0.0437,0.0351,0.0264,0.0216,0.0588,0.0587,0.0585,0,0.0654,0.0705,0.0836,0.0925,0.0976,0.1118,0.1242,0.1353,0.1501,0.1669,0.1786,0.1759,0.176,0.1484,0.1169,0.0874,0.074,0.0651,0.0576,0.0457,0.0325,0.0274,0.0237,0.0546,0.0545,0.0544,0.0543,0,0.0726,0.0764,0.0856,0.1031,0.1168,0.1331,0.1508,0.164,0.1797,0.1927,0.207,0.2072,0.1801,0.1508,0.1097,0.0878,0.0575,0.0613,0.0525,0.0336,0.0251,0.0169,0.0516,0.0532,0.0533,0.0534,0.0535,0.0535,0.0787,0.0872,0.0996,0.1171,0.1328,0.1528,0.1668,0.1852,0.2058,0.2237,0.2236,0.2227,0.1826,0.1258,0.0978,0.0479,0.0459,0.0308,0.0222,0.0189,0.0137,0.0441,0.0382,0.0383,0.0383,0.0383,0.0383,0,0.0876,0.0979,0.114,0.1341,0.1516,0.1583,0.1845,0.1979,0.2192,0.2309,0.2373,0.2159,0.1666,0.1188,0.0516,0.0178,0.0069,0.0001,-0.0049,-0.0063,0.0247,0.0243,0.0113,0.0113,0.0113,0.0113,0.0113,0.0113,0.0932,0.109,0.1176,0.1463,0.1603,0.183,0.1968,0.2144,0.2267,0.2362,0.2336,0.2299,0.1966,0.0799,0.0084,-0.0087,-0.0263,-0.0369,-0.0431,-0.0206,-0.0182,-0.016,-0.0178,-0.0394,-0.0395,-0.0672,-0.0676,-0.0678]}],[{"header":{"parameterUnit":"m.s-1","parameterCategory":2,"la1":30.2991,"la2":30.254,"lo1":-89.0895,"lo2":-89.0444,"dy":0.0017,"dx":0.0017,"nx":28,"ny":28,"refTime":"2025-07-07T09:00:00:Z","depth":"2","parameterNumber":2,"parameterNumberName":"U-component_of_CURRENTS"},"data":[0,0,0,0,0,0,0,0,0,0,0,0,0,0,0,0,0,0,0,0,0,0,0,0,0,0,0,0,0,0,0,0,0,0,0,0,0,0,0,0,0,0,0,0,0,0,0,0,0,0,0,0,0,0,0,0,0,0,0.299,0.299,0,0.298,0.298,0.298,0.2961,0.2961,0.2961,0.2961,0.2993,0.2994,0.2995,0,0,0,0,0,0,0,0,0,0,0,0,0,0.3001,0.3001,0.299,0.299,0.299,0.298,0.298,0.2979,0.2961,0.2961,0.2961,0.2961,0.2992,0.2994,0.2995,0,0,0,0,0,0,0,0,0,0,0,0,0,0.2991,0.3001,0.299,0.2982,0.2982,0.298,0.298,0.2979,0.2961,0.2961,0.2961,0.2961,0.2992,0.2993,0.2995,0.3005,0,0,0.2999,0.3,0,0,0,0,0,0,0,0,0.2992,0.2991,0.2983,0.2983,0.2982,0.2975,0.2996,0.2991,0.2961,0.2965,0.2961,0.2961,0.2993,0.2994,0.2987,0.3007,0.3008,0.2999,0.3,0.3001,0.3001,0,0,0,0,0,0,0,0.2993,0.2991,0.2983,0.2984,0.2983,0.2983,0.2981,0.2994,0.2978,0.2965,0.2965,0.2969,0.2992,0.2986,0.2988,0.3009,0.2999,0.3,0.3001,0.3002,0.3144,0.3147,0,0,0,0,0,0,0.3,0.2992,0.2983,0.2983,0.2991,0.2983,0.298,0.2974,0.2977,0.2978,0.2969,0.2968,0.2984,0.2986,0.2989,0.3104,0.3001,0.3002,0.3003,0.3141,0.3145,0.3148,0,0,0,0,0,0,0.3,0.2999,0.2984,0.299,0.2989,0.2983,0.2976,0.2974,0.2982,0.298,0.2981,0.2981,0.2984,0.2987,0.3042,0.3102,0.3002,0.3004,0.3138,0.3142,0.3147,0.3269,0,0,0,0,0,0,0.3,0.2999,0.3003,0.299,0.2989,0.3002,0.2977,0.2974,0.2986,0.2985,0.2991,0.2992,0.2984,0.304,0.3043,0.3102,0.3005,0.3134,0.314,0.3145,0.3262,0.3278,0.3291,0,0,0,0,0,0.3,0.3005,0.3003,0.3002,0.2992,0.3004,0.3003,0.2996,0.2987,0.3,0.3021,0.2993,0.3078,0.3044,0.3047,0.3107,0.3131,0.3138,0.3145,0.3255,0.3274,0.3291,0,0,0,0,0,0,0.301,0.3004,0.3001,0.3002,0.3013,0.3002,0.3012,0.3008,0.303,0.3036,0.3028,0.3033,0.3106,0.3089,0.3052,0.3166,0.3101,0.3109,0.3184,0.3202,0.3217,0.3234,0.3006,0,0,0,0,0,0.3016,0.3017,0.3018,0.3023,0.3029,0.3025,0.303,0.303,0.3045,0.3052,0.3063,0.3086,0.3132,0.3153,0.3178,0.3235,0.3231,0.3277,0.3292,0.3305,0.3323,0.3395,0.3418,0.317,0.317,0.317,0,0,0.302,0.3019,0.3018,0.3026,0.3029,0.305,0.3027,0.3046,0.3081,0.3055,0.3112,0.3138,0.316,0.3235,0.3265,0.323,0.3369,0.3313,0.3324,0.3335,0.3405,0.3429,0.345,0.3175,0.3174,0.3173,0,0,0.3031,0.3031,0.3038,0.3055,0.3073,0.3078,0.309,0.3101,0.3126,0.3187,0.3192,0.3265,0.3302,0.335,0.3375,0.3487,0.3447,0.3485,0.3574,0.3645,0.3666,0.3684,0.3687,0.3704,0.349,0.3491,0.3491,0,0.3038,0.3047,0.3046,0.3067,0.3093,0.3095,0.3128,0.3154,0.3188,0.3234,0.3224,0.3353,0.3369,0.3489,0.3532,0.3524,0.3527,0.3503,0.3665,0.3683,0.37,0.3698,0.3716,0.3497,0.3497,0.3496,0.3495,0,0.3053,0.3075,0.3086,0.3113,0.3144,0.3173,0.3214,0.3261,0.3297,0.3331,0.346,0.351,0.3587,0.3613,0.3609,0.3746,0.3694,0.3676,0.3618,0.3732,0.3722,0.3739,0.3507,0.3505,0.3503,0.3501,0,0,0.3031,0.3085,0.3091,0.3121,0.3177,0.3198,0.3286,0.3365,0.3431,0.3506,0.3616,0.3727,0.3756,0.3789,0.3809,0.388,0.3996,0.3833,0.3834,0.3832,0.4108,0.3932,0.3932,0.4005,0.4009,0.4013,0.4043,0,0.3047,0.3093,0.3127,0.3191,0.3222,0.3284,0.3361,0.3442,0.3521,0.3625,0.373,0.3834,0.3821,0.3882,0.3957,0.3991,0.405,0.3987,0.4,0.4,0.3829,0.395,0.3644,0.3634,0.4059,0.4061,0.4063,0,0.3045,0.3084,0.3142,0.3241,0.3263,0.331,0.3444,0.3519,0.367,0.3745,0.3879,0.394,0.4084,0.4052,0.418,0.4136,0.4139,0.4154,0.4155,0.3963,0.3857,0.3595,0.3648,0.409,0.4088,0.4086,0.4084,0,0.3012,0.3096,0.3144,0.3173,0.3279,0.3343,0.3417,0.3556,0.3655,0.3831,0.393,0.4073,0.4161,0.423,0.4261,0.4232,0.437,0.4323,0.4166,0.415,0.3878,0.3831,0.4422,0.4422,0.4422,0.4422,0.4422,0,0.3006,0.3044,0.313,0.3154,0.3241,0.3329,0.3452,0.355,0.3728,0.3837,0.3987,0.4093,0.4215,0.43,0.4311,0.4284,0.4409,0.4205,0.417,0.3906,0.3864,0.4249,0.4229,0.4423,0.4423,0.4422,0.4422,0,0.2955,0.3004,0.3069,0.3185,0.3219,0.3287,0.3467,0.356,0.3729,0.3887,0.3958,0.4138,0.4202,0.4291,0.4373,0.4315,0.433,0.4286,0.3932,0.3855,0.4039,0.4025,0.4105,0.41,0.4095,0.4091,0.4088,0,0.2927,0.2947,0.3066,0.3116,0.317,0.3283,0.3361,0.3539,0.3637,0.3881,0.3942,0.4082,0.4101,0.4162,0.4109,0.4083,0.4213,0.3775,0.367,0.4061,0.4019,0.4012,0.4004,0.3349,0.334,0.3333,0.3327,0,0.2887,0.2928,0.2987,0.308,0.3158,0.3239,0.3358,0.3419,0.3608,0.3715,0.3797,0.3838,0.3889,0.3694,0.3686,0.364,0.3753,0.3617,0.4171,0.3465,0.3348,0.3307,0.3324,0.3261,0.3268,0.3273,0.3276,0.3279,0.2859,0.2899,0.2972,0.3036,0.3112,0.3132,0.3129,0.3227,0.3283,0.3354,0.351,0.3449,0.3475,0.3252,0.3152,0.3081,0.3324,0.3187,0.3211,0.3243,0.3139,0.3018,0.2848,0.2851,0.2855,0.2858,0.2861,0,0.283,0.2869,0.2928,0.2972,0.2951,0.3038,0.307,0.2999,0.2926,0.3038,0.3046,0.2786,0.2649,0.2689,0.2465,0.2444,0.2445,0.2349,0.2336,0.2403,0.2462,0.2319,0.1811,0.1807,0.1804,0.1801,0,0,0.2828,0.2835,0.2835,0.2747,0.2774,0.2687,0.2642,0.2546,0.2546,0.2431,0.2385,0.2566,0.2622,0.2199,0.2134,0.193,0.2159,0.1855,0.2702,0.2757,0.2812,0.2953,0.2808,0,0,0,0,0]},{"header":{"parameterUnit":"m.s-1","parameterCategory":2,"la1":30.2991,"la2":30.254,"lo1":-89.0895,"lo2":-89.0444,"dy":0.0017,"dx":0.0017,"nx":28,"ny":28,"refTime":"2025-07-07T09:00:00:Z","depth":"2","parameterNumber":3,"parameterNumberName":"V-component_of_CURRENTS"},"data":[0,0,0,0,0,0,0,0,0,0,0,0,0,0,0,0,0,0,0,0,0,0,0,0,0,0,0,0,0,0,0,0,0,0,0,0,0,0,0,0,0,0,0,0,0,0,0,0,0,0,0,0,0,0,0,0,0,0,0.0104,0.0103,0,0.0062,0.0061,0.0061,0.0037,0.0037,0.0037,0.0037,-0.0001,-0.0002,-0.0003,0,0,0,0,0,0,0,0,0,0,0,0,0,0.0127,0.0127,0.0104,0.0103,0.0103,0.0062,0.0061,0.006,0.0037,0.0037,0.0037,0.0037,-0.0001,-0.0002,-0.0003,0,0,0,0,0,0,0,0,0,0,0,0,0,0.0104,0.0127,0.0104,0.0086,0.0084,0.0062,0.0061,0.006,0.0037,0.0037,0.0037,0.0037,-0.0,-0.0002,-0.0003,-0.001,0,0,-0.0008,-0.0008,0,0,0,0,0,0,0,0,0.0105,0.0103,0.0089,0.0087,0.0085,0.0055,0.0055,0.0037,0.0037,0.0055,0.0037,0.0037,0.0018,0.0015,0.0007,-0.0012,-0.0014,-0.0008,-0.0009,-0.0009,-0.001,0,0,0,0,0,0,0,0.0107,0.0104,0.0087,0.0089,0.0086,0.0068,0.0065,0.0052,0.0037,0.0053,0.0051,0.0047,0.0017,0.0008,0.0006,-0.0014,-0.0008,-0.0009,-0.001,-0.001,-0.0015,-0.0014,0,0,0,0,0,0,0.0115,0.0106,0.0088,0.0085,0.0095,0.0068,0.0064,0.0064,0.0037,0.0033,0.0047,0.0046,0.0011,0.0008,0.0005,0.0031,-0.0009,-0.0011,-0.0011,-0.0015,-0.0014,-0.0014,0,0,0,0,0,0,0.0115,0.0114,0.009,0.0095,0.009,0.0068,0.0068,0.0063,0.0059,0.0033,0.0029,0.0047,0.0011,0.0007,0.0007,0.0028,-0.0011,-0.0012,-0.0016,-0.0015,-0.0014,0.0061,0,0,0,0,0,0,0.0116,0.0114,0.0117,0.0096,0.009,0.0086,0.0068,0.0063,0.0056,0.0054,0.0031,0.0028,0.001,0.0009,0.0005,0.0025,-0.0014,-0.0017,-0.0016,-0.0014,0.0057,0.0064,0.007,0,0,0,0,0,0.0117,0.0125,0.0117,0.0115,0.0095,0.0087,0.0083,0.0066,0.0056,0.006,0.0049,0.0028,0.0015,0.0009,0.0004,0.0024,-0.0018,-0.0016,-0.0014,0.0055,0.0063,0.007,0,0,0,0,0,0,0.0136,0.0123,0.0114,0.0117,0.0106,0.0083,0.0083,0.0071,0.0063,0.0062,0.0038,0.0034,0.0041,0.0021,0.0014,0.0026,-0.0005,-0.0004,0.0049,0.0057,0.0063,0.0097,-0.0015,0,0,0,0,0,0.0141,0.0145,0.0128,0.0131,0.0127,0.0106,0.01,0.0089,0.0078,0.0074,0.0059,0.0046,0.0043,0.0041,0.003,0.0037,0.0019,0.0046,0.0052,0.0058,0.0082,0.0077,0.0086,-0.0008,-0.0008,-0.0008,0,0,0.0148,0.0142,0.0143,0.0135,0.0124,0.0135,0.0102,0.0099,0.0116,0.0072,0.0089,0.0067,0.0049,0.006,0.0062,0.0047,0.007,0.006,0.0065,0.0087,0.008,0.0089,0.0098,-0.0007,-0.0007,-0.0007,0,0,0.0172,0.0161,0.0175,0.0171,0.0162,0.0155,0.0158,0.0141,0.0141,0.0148,0.0126,0.0127,0.0109,0.0112,0.0109,0.0144,0.0104,0.0129,0.0192,0.0187,0.0195,0.0202,0.0172,0.0175,0.0133,0.0134,0.0134,0,0.0183,0.02,0.0177,0.0192,0.0203,0.0171,0.0198,0.0192,0.018,0.0196,0.0166,0.0172,0.0143,0.0183,0.0187,0.0163,0.0139,0.0165,0.0197,0.0204,0.021,0.0177,0.018,0.0137,0.0137,0.0137,0.0136,0,0.0219,0.0234,0.0243,0.026,0.0267,0.0282,0.0277,0.0287,0.0279,0.0277,0.0305,0.0272,0.0284,0.0263,0.0232,0.0267,0.0228,0.0205,0.0181,0.0224,0.0186,0.0188,0.0143,0.0141,0.014,0.0139,0,0,0.0247,0.0268,0.0272,0.0304,0.0308,0.0327,0.0357,0.0389,0.0433,0.0407,0.0469,0.0438,0.0419,0.0415,0.0378,0.0364,0.0361,0.0302,0.0299,0.0279,0.0329,0.0281,0.0278,0.0338,0.0339,0.034,0.0278,0,0.0289,0.0343,0.0341,0.0407,0.0442,0.0436,0.048,0.0502,0.0511,0.0556,0.0532,0.0566,0.0478,0.0493,0.0464,0.0394,0.0373,0.0379,0.0286,0.0283,0.0242,0.0282,0.0294,0.0239,0.028,0.028,0.0281,0,0.0333,0.037,0.0435,0.0509,0.0526,0.056,0.0642,0.0678,0.0719,0.0729,0.0747,0.0724,0.0715,0.0636,0.0541,0.0544,0.0449,0.0381,0.0376,0.0315,0.0241,0.0206,0.024,0.0284,0.0283,0.0283,0.0283,0,0.0382,0.0445,0.0509,0.0527,0.0592,0.0636,0.0684,0.0734,0.0806,0.0851,0.0909,0.0869,0.0879,0.0763,0.0603,0.0575,0.0489,0.0434,0.0306,0.0299,0.0286,0.0277,0.0384,0.0385,0.0385,0.0385,0.0385,0,0.0436,0.049,0.054,0.0574,0.0686,0.0707,0.0828,0.0864,0.0956,0.1064,0.1011,0.1076,0.0911,0.0838,0.0666,0.0493,0.0535,0.0334,0.0294,0.0308,0.0302,0.0326,0.032,0.0382,0.0383,0.0383,0.0384,0,0.0479,0.0501,0.0589,0.067,0.0708,0.0793,0.0938,0.1039,0.1092,0.1237,0.1269,0.1246,0.1127,0.0946,0.0755,0.059,0.0422,0.0351,0.0363,0.0326,0.0213,0.0211,0.0202,0.02,0.0199,0.0197,0.0196,0,0.0505,0.0547,0.066,0.0741,0.0783,0.0909,0.1016,0.1105,0.122,0.1338,0.1426,0.1365,0.1317,0.1012,0.0729,0.0443,0.0405,0.0263,0.0215,0.0239,0.0201,0.0202,0.0203,0.0213,0.0212,0.0211,0.0211,0,0.0565,0.0597,0.0676,0.0836,0.0957,0.1098,0.1248,0.1355,0.1472,0.1562,0.1639,0.1605,0.1338,0.1042,0.0666,0.0467,0.0303,0.0236,0.029,0.0255,0.0244,0.0208,0.0209,0.0204,0.0205,0.0205,0.0205,0.0206,0.0619,0.0692,0.08,0.0958,0.1099,0.1267,0.1383,0.1521,0.1671,0.1799,0.1769,0.1701,0.1402,0.0897,0.0578,0.0248,0.0262,0.0124,0.0129,0.0134,0.0145,0.0132,0.0071,0.0071,0.007,0.007,0.007,0,0.07,0.0787,0.0928,0.1107,0.1256,0.1318,0.1532,0.1621,0.1757,0.1853,0.1875,0.1565,0.1251,0.0906,0.0424,0.013,0.0115,0.0017,0.0069,0.0078,0.0085,0.0095,0.0006,0.0005,0.0004,0.0003,0,0,0.0751,0.0885,0.0954,0.1197,0.1324,0.1511,0.1621,0.1729,0.1815,0.185,0.1817,0.1763,0.1344,0.0978,0.0583,0.03,0.0253,0.0232,0.0314,0.0431,0.0441,0.0173,0.0201,0,0,0,0,0]}],[{"header":{"parameterUnit":"m.s-1","parameterCategory":2,"la1":30.2991,"la2":30.254,"lo1":-89.0895,"lo2":-89.0444,"dy":0.0017,"dx":0.0017,"nx":28,"ny":28,"refTime":"2025-07-07T09:00:00:Z","depth":"4","parameterNumber":2,"parameterNumberName":"U-component_of_CURRENTS"},"data":[0,0,0,0,0,0,0,0,0,0,0,0,0,0,0,0,0,0,0,0,0,0,0,0,0,0,0,0,0,0,0,0,0,0,0,0,0,0,0,0,0,0,0,0,0,0,0,0,0,0,0,0,0,0,0,0,0,0,0.1892,0.1892,0,0.1909,0.1909,0.1908,0.1946,0.1947,0.1948,0.1949,0.1966,0.1965,0.1964,0,0,0,0,0,0,0,0,0,0,0,0,0,0.1858,0.1858,0.1891,0.1892,0.1893,0.1909,0.1909,0.1908,0.1946,0.1947,0.1949,0.195,0.1966,0.1965,0.1964,0,0,0,0,0,0,0,0,0,0,0,0,0,0.1869,0.1858,0.1891,0.1916,0.1919,0.1909,0.1909,0.1908,0.1946,0.1947,0.1949,0.1951,0.1966,0.1965,0.1964,0.1924,0,0,0.1961,0.1961,0,0,0,0,0,0,0,0,0.1869,0.187,0.1912,0.1915,0.1918,0.1931,0.1903,0.1915,0.1945,0.1931,0.1949,0.1951,0.1955,0.1955,0.1949,0.1925,0.1925,0.1961,0.1961,0.196,0.196,0,0,0,0,0,0,0,0.1868,0.187,0.1894,0.1913,0.1916,0.1916,0.1919,0.1905,0.193,0.1932,0.1936,0.1944,0.1956,0.195,0.195,0.1926,0.1961,0.196,0.196,0.1959,0.1994,0.1995,0,0,0,0,0,0,0.1874,0.1869,0.1894,0.1895,0.1902,0.1915,0.1919,0.1921,0.193,0.1935,0.1943,0.1946,0.195,0.1951,0.195,0.2011,0.196,0.1959,0.1959,0.1993,0.1994,0.1996,0,0,0,0,0,0,0.1873,0.1876,0.1893,0.1886,0.1889,0.1915,0.1917,0.1921,0.1956,0.1939,0.1943,0.198,0.1952,0.1952,0.1967,0.2008,0.1959,0.1958,0.1991,0.1993,0.1995,0.2062,0,0,0,0,0,0,0.1872,0.1875,0.1898,0.1886,0.189,0.191,0.1916,0.192,0.1958,0.1964,0.1971,0.1972,0.1953,0.1968,0.1966,0.2005,0.1957,0.1989,0.1992,0.1994,0.2058,0.2066,0.2074,0,0,0,0,0,0.187,0.1888,0.1899,0.1903,0.1914,0.1911,0.1912,0.1933,0.1959,0.1972,0.198,0.1974,0.1986,0.1968,0.1965,0.2005,0.1988,0.1991,0.1994,0.2055,0.2065,0.2073,0,0,0,0,0,0,0.1888,0.1893,0.1905,0.1926,0.1931,0.192,0.1945,0.1955,0.1971,0.1993,0.1977,0.1978,0.201,0.1995,0.1977,0.2025,0.1992,0.1994,0.2039,0.2048,0.2056,0.208,0.1956,0,0,0,0,0,0.1901,0.1919,0.1917,0.1939,0.1947,0.1954,0.1967,0.1978,0.1982,0.1995,0.1994,0.2004,0.2012,0.2022,0.2018,0.2034,0.2046,0.2064,0.2072,0.2079,0.2098,0.2157,0.2172,0.2007,0.2007,0.2007,0,0,0.1915,0.1922,0.1935,0.1945,0.1956,0.1953,0.1966,0.1994,0.2002,0.1991,0.2015,0.2028,0.2022,0.2045,0.206,0.2044,0.2128,0.2083,0.2089,0.2105,0.2162,0.2178,0.2193,0.2009,0.2009,0.2009,0,0,0.1928,0.196,0.197,0.1972,0.1995,0.1991,0.2008,0.2014,0.2039,0.2054,0.2059,0.2101,0.2096,0.2109,0.2113,0.2162,0.2166,0.217,0.223,0.2287,0.2301,0.2314,0.2334,0.2348,0.2176,0.2176,0.2176,0,0.195,0.1948,0.1974,0.1973,0.1982,0.201,0.2011,0.2026,0.2037,0.2069,0.2076,0.2126,0.2128,0.2169,0.2199,0.2181,0.2206,0.2193,0.2299,0.2312,0.2324,0.2341,0.2355,0.218,0.2179,0.2179,0.2178,0,0.1945,0.1954,0.1964,0.1967,0.1986,0.1994,0.2013,0.2045,0.2086,0.2107,0.2178,0.219,0.2231,0.2242,0.2239,0.2329,0.2315,0.23,0.2276,0.2345,0.2357,0.2372,0.2185,0.2183,0.2182,0.2181,0,0,0.1951,0.1957,0.1963,0.1957,0.1984,0.1987,0.2029,0.2067,0.2115,0.2159,0.2229,0.2272,0.2323,0.2334,0.2347,0.2404,0.2509,0.2407,0.2408,0.2428,0.2626,0.2445,0.2442,0.2525,0.2528,0.2531,0.2594,0,0.1936,0.1923,0.1943,0.1938,0.1926,0.1977,0.2011,0.2066,0.213,0.2203,0.2274,0.2347,0.2342,0.24,0.2455,0.2497,0.2554,0.2492,0.2555,0.2556,0.239,0.2455,0.2541,0.2604,0.2608,0.261,0.2612,0,0.191,0.19,0.1896,0.1914,0.1924,0.1946,0.2031,0.2072,0.2192,0.2257,0.2358,0.2417,0.2521,0.2517,0.2624,0.2592,0.2631,0.2654,0.2656,0.2479,0.2402,0.2526,0.2637,0.2635,0.2633,0.2631,0.263,0,0.1865,0.1866,0.1863,0.1863,0.1894,0.1941,0.1997,0.2108,0.2176,0.233,0.2408,0.2511,0.2608,0.2662,0.272,0.2699,0.2829,0.2789,0.2654,0.264,0.2754,0.274,0.2886,0.2886,0.2886,0.2886,0.2886,0,0.1809,0.1807,0.1849,0.1833,0.1869,0.1933,0.2012,0.2095,0.2241,0.2331,0.2457,0.2534,0.2668,0.2746,0.276,0.274,0.2859,0.2679,0.2655,0.2776,0.2764,0.2763,0.2747,0.2888,0.2888,0.2887,0.2887,0,0.1741,0.177,0.1746,0.1794,0.1839,0.1872,0.2019,0.2075,0.2237,0.2366,0.2436,0.261,0.2702,0.2775,0.2879,0.2787,0.2785,0.2757,0.2881,0.286,0.2544,0.2532,0.2589,0.2583,0.2579,0.2575,0.2571,0,0.1696,0.1676,0.171,0.1733,0.1765,0.1843,0.1911,0.2068,0.2139,0.2372,0.2424,0.2604,0.2685,0.2664,0.2753,0.2745,0.2724,0.2693,0.2618,0.2548,0.252,0.2515,0.251,0.2564,0.2562,0.2561,0.256,0,0.1587,0.1611,0.1596,0.1641,0.1702,0.1746,0.1866,0.1909,0.2096,0.2255,0.236,0.2419,0.252,0.2564,0.2598,0.2584,0.2683,0.2643,0.2652,0.2581,0.2518,0.2494,0.2494,0.2543,0.2546,0.2547,0.2548,0,0.1516,0.1476,0.1483,0.1515,0.16,0.1642,0.1702,0.1793,0.1887,0.2151,0.2177,0.2345,0.2509,0.2483,0.2497,0.248,0.2434,0.2335,0.2359,0.2378,0.2277,0.2164,0.2074,0,0,0,0,0,0.1426,0.1373,0.1377,0.1385,0.1475,0.1536,0.1671,0.174,0.1923,0.1946,0.2062,0.2139,0.2195,0.2275,0.2213,0.2385,0.2431,0.2299,0.2327,0.2452,0.2471,0.2369,0,0,0,0,0,0,0.1361,0.134,0.1309,0.1292,0.1312,0.1388,0.1475,0.1598,0.1614,0.1817,0.1857,0.2002,0.2083,0.2216,0.2174,0.2194,0.2163,0.24,0.2394,0.2441,0.2458,0.2474,0.2375,0,0,0,0,0]},{"header":{"parameterUnit":"m.s-1","parameterCategory":2,"la1":30.2991,"la2":30.254,"lo1":-89.0895,"lo2":-89.0444,"dy":0.0017,"dx":0.0017,"nx":28,"ny":28,"refTime":"2025-07-07T09:00:00:Z","depth":"4","parameterNumber":3,"parameterNumberName":"V-component_of_CURRENTS"},"data":[0,0,0,0,0,0,0,0,0,0,0,0,0,0,0,0,0,0,0,0,0,0,0,0,0,0,0,0,0,0,0,0,0,0,0,0,0,0,0,0,0,0,0,0,0,0,0,0,0,0,0,0,0,0,0,0,0,0,0.0042,0.0042,0,0.0015,0.0015,0.0014,-0.0001,-0.0001,-0.0001,-0.0001,-0.0019,-0.0019,-0.0019,0,0,0,0,0,0,0,0,0,0,0,0,0,0.0059,0.0059,0.0042,0.0042,0.0041,0.0015,0.0015,0.0014,-0.0001,-0.0001,-0.0001,-0.0001,-0.0019,-0.0019,-0.0019,0,0,0,0,0,0,0,0,0,0,0,0,0,0.0044,0.0059,0.0042,0.003,0.0029,0.0015,0.0015,0.0014,-0.0001,-0.0001,-0.0001,-0.0001,-0.0018,-0.0019,-0.002,-0.0021,0,0,-0.0021,-0.0022,0,0,0,0,0,0,0,0,0.0045,0.0044,0.0032,0.0031,0.0029,0.001,0.0014,0.0003,-0.0001,0.0011,-0.0001,-0.0001,-0.0008,-0.001,-0.0014,-0.0021,-0.0022,-0.0021,-0.0022,-0.0022,-0.0022,0,0,0,0,0,0,0,0.0046,0.0045,0.0031,0.0032,0.003,0.0019,0.0017,0.0012,0.0003,0.001,0.0008,0.0005,-0.0009,-0.0014,-0.0015,-0.0022,-0.0021,-0.0022,-0.0022,-0.0022,-0.0018,-0.0018,0,0,0,0,0,0,0.005,0.0046,0.0032,0.0031,0.0037,0.0019,0.0017,0.0017,0.0002,-0.0,0.0005,0.0004,-0.0013,-0.0014,-0.0015,0.0007,-0.0022,-0.0022,-0.0023,-0.0019,-0.0018,-0.0018,0,0,0,0,0,0,0.0051,0.0049,0.0033,0.0037,0.0034,0.0019,0.0019,0.0016,0.0014,-0.0001,-0.0003,0.0006,-0.0013,-0.0015,-0.0011,0.0006,-0.0023,-0.0023,-0.0019,-0.0019,-0.0018,0.0037,0,0,0,0,0,0,0.0052,0.005,0.0052,0.0038,0.0034,0.0032,0.0019,0.0016,0.0012,0.0011,-0.0001,-0.0003,-0.0013,-0.001,-0.0011,0.0004,-0.0024,-0.002,-0.0019,-0.0018,0.0035,0.004,0.0044,0,0,0,0,0,0.0052,0.0058,0.0052,0.0051,0.0038,0.0032,0.003,0.0018,0.0012,0.0015,0.001,-0.0002,-0.0006,-0.001,-0.0012,0.0004,-0.002,-0.0019,-0.0018,0.0033,0.0039,0.0044,0,0,0,0,0,0,0.0066,0.0056,0.005,0.0052,0.0045,0.0029,0.003,0.0022,0.0019,0.0019,0.0005,0.0003,0.0012,-0.0002,-0.0006,0.0007,-0.0016,-0.0015,0.0024,0.0029,0.0034,0.0041,-0.0024,0,0,0,0,0,0.007,0.0073,0.006,0.0062,0.006,0.0046,0.0042,0.0035,0.0028,0.0027,0.002,0.0013,0.0014,0.0014,0.0009,0.0017,-0.0012,0.0024,0.0029,0.0033,0.0036,0.0,0.0002,-0.0014,-0.0014,-0.0014,0,0,0.0075,0.007,0.0071,0.0065,0.0058,0.0069,0.0043,0.0042,0.0056,0.0026,0.0043,0.0029,0.0019,0.003,0.0033,0.0022,0.0023,0.0034,0.0038,0.0039,0.0002,0.0003,0.0004,-0.0014,-0.0014,-0.0014,0,0,0.0092,0.0084,0.0094,0.0093,0.0086,0.0084,0.0086,0.0075,0.0075,0.0085,0.007,0.0064,0.0066,0.006,0.0059,0.0083,0.0048,0.0083,0.0113,0.0079,0.008,0.008,0.005,0.0048,0.0085,0.0085,0.0085,0,0.0099,0.0113,0.0095,0.0108,0.0118,0.0096,0.0119,0.0115,0.0109,0.0114,0.01,0.0094,0.0081,0.0096,0.0104,0.0095,0.0068,0.0096,0.0085,0.0084,0.0084,0.0053,0.0049,0.0088,0.0088,0.0088,0.0087,0,0.0125,0.0139,0.0145,0.0161,0.0169,0.0182,0.0181,0.0189,0.0186,0.0178,0.0182,0.0157,0.0153,0.0147,0.0136,0.0134,0.0114,0.0094,0.0072,0.0089,0.0055,0.0051,0.0092,0.0091,0.009,0.009,0,0,0.0142,0.0162,0.0166,0.0193,0.0202,0.0218,0.0243,0.0261,0.0281,0.0258,0.0278,0.0261,0.023,0.0226,0.02,0.0169,0.0142,0.0135,0.0131,0.0107,0.0067,0.0065,0.0059,0.0118,0.0117,0.0117,0.0046,0,0.0173,0.0217,0.0218,0.0274,0.0303,0.0302,0.0333,0.0344,0.034,0.0349,0.0309,0.0315,0.0266,0.0267,0.0225,0.0162,0.0131,0.0163,0.0052,0.0049,0.0047,0.0054,0.0115,0.0042,0.0041,0.004,0.004,0,0.0203,0.0235,0.029,0.0348,0.0361,0.0392,0.0443,0.0468,0.0464,0.0457,0.0433,0.0397,0.0356,0.0312,0.02,0.0221,0.0154,0.0097,0.0092,0.0068,0.0038,0.0019,0.0031,0.0031,0.0032,0.0033,0.0033,0,0.0236,0.0291,0.0345,0.0361,0.0414,0.0449,0.0486,0.0501,0.0535,0.0527,0.0533,0.0464,0.0444,0.0336,0.0209,0.0206,0.0078,0.0058,-0.0006,-0.0007,-0.001,-0.001,-0.0013,-0.0013,-0.0013,-0.0012,-0.0012,0,0.0272,0.0317,0.0369,0.0397,0.0484,0.0501,0.0577,0.0596,0.0621,0.0661,0.0593,0.0591,0.0448,0.0355,0.023,0.0092,0.0089,0.0001,-0.0025,0.0016,0.002,-0.0013,-0.0012,-0.0015,-0.0014,-0.0014,-0.0013,0,0.0295,0.0321,0.0393,0.0464,0.0499,0.0564,0.0658,0.0704,0.0713,0.0761,0.0765,0.0691,0.0571,0.0414,0.0244,0.0135,-0.0004,-0.0047,0.0013,-0.001,-0.007,-0.0065,-0.0122,-0.0123,-0.0123,-0.0124,-0.0124,0,0.0309,0.0343,0.0445,0.0505,0.0544,0.064,0.0707,0.0755,0.0799,0.0816,0.0837,0.0752,0.0679,0.0433,0.026,0.0026,-0.0005,-0.0082,-0.008,-0.0061,-0.0081,-0.0075,-0.007,-0.0125,-0.0125,-0.0125,-0.0125,0,0.0341,0.0372,0.0436,0.0553,0.064,0.0738,0.0829,0.0872,0.0919,0.0926,0.0904,0.0785,0.0655,0.0453,0.0276,0.0104,-0.0042,-0.0088,-0.0088,-0.0087,-0.0065,-0.0083,-0.0077,-0.0127,-0.0127,-0.0127,-0.0127,0,0.0369,0.0418,0.0496,0.0607,0.0712,0.0802,0.0854,0.0909,0.0957,0.097,0.096,0.0816,0.074,0.0494,0.0321,0.0157,0.0116,0.0051,0.0043,0.0043,0.0106,0.0159,0.0146,0,0,0,0,0,0.0399,0.0451,0.0546,0.0658,0.0757,0.0817,0.0919,0.0955,0.0998,0.0996,0.0984,0.0864,0.063,0.0522,0.0362,0.0297,0.0075,0.0101,-0.0007,-0.0138,-0.0136,-0.0092,0,0,0,0,0,0,0.0418,0.05,0.0543,0.0672,0.0751,0.0857,0.0924,0.0959,0.0956,0.0973,0.0853,0.0807,0.0578,0.0721,0.0352,0.0303,0.0209,-0.0004,-0.0008,-0.0139,-0.0137,-0.0135,-0.0089,0,0,0,0,0]}]]